Вернуться в каталог

IRS P2 R/B

АктивенSSO
NORAD 23324·ROCKET BODY·🇮🇳 India

Запущен Oct 15, 1994 с Satish Dhawan Space Centre

Loading…

Ближайшие Пролёты (ближайшие 24 часа)

TLE

СвежийSource: Space-Track

Эпоха: Sep 14, 2026, 10:46 UTC

1 23324U 94068B   26257.44920775  .00000022  00000-0  32302-4 0  9999
2 23324  98.8381 331.0122 0057330  19.6808 340.6562 14.17421584650188

Отслеживайте IRS P2 R/B в реальном времени с AllMySat

Download on the App Store